FW4540 Weather Reports


Display with metric or nautical units.
time (UTC)temp
F
wind
direction
speed
MPH
gust
MPH
rain 1hr
in
rain 24hr
in
rain mn
in
humidity
%
barometer
mb
20260509032009 51 0 0.0 0.0 0.00 0.00 0.00 91 14.6
20260509031010 52 0 0.0 0.0 0.00 0.00 0.00 87 14.6
20260509030010 53 0 0.0 0.0 0.00 0.00 0.00 86 14.6
20260509024009 53 0 0.0 0.0 0.00 0.00 0.00 85 14.5
20260509023009 53 180 0.0 1.0 0.00 0.00 0.00 85 14.3
20260509022014 54 0 0.0 0.0 0.00 0.00 0.00 84 14.3
20260509015014 55 180 1.0 4.0 0.00 0.00 0.00 84 14.2
20260509012014 54 0 0.0 0.0 0.00 0.00 0.00 86 14.2
20260509010014 54 0 0.0 0.0 0.00 0.00 0.00 87 14.3
20260509005014 55 0 0.0 0.0 0.00 0.00 0.00 86 14.2
20260509004014 57 0 0.0 0.0 0.00 0.00 0.00 80 14.3
20260509003014 56 0 0.0 0.0 0.00 0.00 0.00 85 14.3
20260509002014 56 157 2.0 3.0 0.00 0.00 0.00 85 14.3
20260509001014 57 180 1.0 4.0 0.00 0.00 0.00 83 14.4
20260509000014 57 135 0.0 4.0 0.00 0.00 0.00 85 14.4
20260508235014 57 0 0.0 0.0 0.00 0.00 0.00 85 14.4
20260508234014 57 0 0.0 0.0 0.00 0.00 0.00 89 14.5
20260508233014 57 0 0.0 0.0 0.00 0.00 0.00 88 14.5
20260508232014 57 0 0.0 0.0 0.00 0.00 0.00 86 14.6
20260508231014 58 135 1.0 3.0 0.00 0.00 0.00 84 14.6
20260508230014 58 135 2.0 4.0 0.00 0.00 0.00 85 14.6
20260508225014 57 90 0.0 2.0 0.00 0.00 0.00 86 14.6
20260508224014 56 90 1.0 4.0 0.00 0.00 0.00 88 14.6
20260508223014 56 0 0.0 2.0 0.00 0.00 0.00 89 14.5
20260508222014 56 0 0.0 0.0 0.00 0.00 0.00 86 14.5
20260508220014 57 0 0.0 0.0 0.00 0.00 0.00 85 14.4
20260508215014 56 0 0.0 0.0 0.00 0.00 0.00 92 14.3
20260508213014 56 0 0.0 0.0 0.00 0.00 0.00 87 14.2
20260508211014 57 0 0.0 0.0 0.00 0.00 0.00 90 14.1
20260508210015 57 0 0.0 0.0 0.00 0.00 0.00 91 14.1
20260508205014 57 0 0.0 0.0 0.00 0.00 0.00 91 14.0
20260508204014 56 0 0.0 0.0 0.00 0.00 0.00 92 14.0
20260508202014 56 0 0.0 0.0 0.00 0.00 0.00 88 13.9
20260508200014 57 0 0.0 0.0 0.00 0.00 0.00 87 13.8
20260508195014 58 0 0.0 0.0 0.00 0.00 0.00 88 13.7
20260508194014 58 0 0.0 0.0 0.00 0.00 0.00 86 13.6
20260508193014 59 0 0.0 0.0 0.00 0.00 0.00 84 13.4
20260508192014 60 0 0.0 0.0 0.00 0.00 0.00 84 13.2
20260508191014 60 0 0.0 0.0 0.00 0.00 0.00 82 13.1
20260508190014 62 0 0.0 0.0 0.00 0.00 0.00 85 13.0
20260508185014 63 0 0.0 0.0 0.00 0.00 0.00 80 12.9
20260508184014 64 0 0.0 0.0 0.00 0.00 0.00 79 12.9
20260508183013 65 0 0.0 0.0 0.00 0.00 0.00 73 12.7
20260508182013 66 0 0.0 0.0 0.00 0.00 0.00 61 12.6
20260508181013 67 0 0.0 0.0 0.00 0.00 0.00 58 12.7
20260508180014 67 45 0.0 2.0 0.00 0.00 0.00 58 12.5
20260508175013 69 45 1.0 3.0 0.00 0.00 0.00 54 12.4
20260508174013 69 45 1.0 2.0 0.00 0.00 0.00 54 12.4
20260508173014 69 45 2.0 4.0 0.00 0.00 0.00 55 12.4
20260508172013 70 22 2.0 4.0 0.00 0.00 0.00 55 12.4
20260508171014 71 45 0.0 2.0 0.00 0.00 0.00 50 12.4
20260508165014 71 45 2.0 7.0 0.00 0.00 0.00 54 12.4
20260508164013 71 292 0.0 2.0 0.00 0.00 0.00 48 12.4
20260508162013 71 247 0.0 2.0 0.00 0.00 0.00 53 12.6
20260508161013 72 270 0.0 1.0 0.00 0.00 0.00 49 12.5
20260508160014 71 247 2.0 3.0 0.00 0.00 0.00 49 12.5
20260508154013 72 270 2.0 3.0 0.00 0.00 0.00 51 12.5
20260508153013 72 270 1.0 4.0 0.00 0.00 0.00 48 12.5
20260508152013 72 22 0.0 2.0 0.00 0.00 0.00 54 12.5
20260508151013 72 22 1.0 3.0 0.00 0.00 0.00 49 12.6
20260508145013 70 135 1.0 3.0 0.00 0.00 0.00 56 12.6
20260508144013 71 45 2.0 4.0 0.00 0.00 0.00 53 12.7
20260508143013 72 22 2.0 4.0 0.00 0.00 0.00 56 12.9
20260508142013 72 270 2.0 7.0 0.00 0.00 0.00 52 12.9
20260508140014 71 67 3.0 7.0 0.00 0.00 0.00 56 13.2
20260508135013 71 22 1.0 3.0 0.00 0.00 0.00 60 13.3
20260508134013 71 225 0.0 2.0 0.00 0.00 0.00 63 13.4
20260508133013 70 90 1.0 2.0 0.00 0.00 0.00 54 13.4
20260508132013 70 270 2.0 5.0 0.00 0.00 0.00 61 13.5
20260508131013 70 22 1.0 4.0 0.00 0.00 0.00 57 13.6
20260508130013 71 45 1.0 3.0 0.00 0.00 0.00 57 13.7
20260508125013 69 67 1.0 4.0 0.00 0.00 0.00 62 13.7
20260508124013 70 360 2.0 5.0 0.00 0.00 0.00 60 13.8
20260508122013 69 360 1.0 6.0 0.00 0.00 0.00 71 13.9
20260508121013 69 67 2.0 7.0 0.00 0.00 0.00 67 14.0
20260508120013 67 45 2.0 5.0 0.00 0.00 0.00 65 14.0
20260508115013 68 45 1.0 4.0 0.00 0.00 0.00 68 14.2
20260508114013 69 270 1.0 5.0 0.00 0.00 0.00 74 14.2
20260508113013 68 45 2.0 9.0 0.00 0.00 0.00 70 14.2
20260508112013 67 22 2.0 4.0 0.00 0.00 0.00 66 14.3
20260508111013 67 67 1.0 4.0 0.00 0.00 0.00 75 14.4
20260508110013 65 67 2.0 4.0 0.00 0.00 0.00 72 14.6
20260508104012 65 202 0.0 3.0 0.00 0.00 0.00 75 14.8
20260508103013 64 67 2.0 6.0 0.00 0.00 0.00 77 14.9
20260508102013 64 45 2.0 5.0 0.00 0.00 0.00 73 14.9
20260508101013 65 22 0.0 3.0 0.00 0.00 0.00 75 14.9
20260508095013 63 67 3.0 5.0 0.00 0.00 0.00 78 15.1
20260508094012 62 112 1.0 6.0 0.00 0.00 0.00 78 15.2
20260508093013 62 67 3.0 5.0 0.00 0.00 0.00 79 15.1
20260508092013 61 67 3.0 8.0 0.00 0.00 0.00 80 15.2
20260508091013 61 67 3.0 6.0 0.00 0.00 0.00 82 15.1
20260508090013 62 22 1.0 4.0 0.00 0.00 0.00 81 15.1
20260508085013 60 67 0.0 3.0 0.00 0.00 0.00 80 15.2
20260508084013 59 67 2.0 4.0 0.00 0.00 0.00 83 15.2
20260508083012 59 45 1.0 4.0 0.00 0.00 0.00 83 15.3
20260508081013 57 45 1.0 4.0 0.00 0.00 0.00 88 15.3
20260508080013 56 45 0.0 2.0 0.00 0.00 0.00 87 15.3
20260508074013 55 45 1.0 5.0 0.00 0.00 0.00 89 15.2
20260508073012 54 45 0.0 4.0 0.00 0.00 0.00 90 15.2
20260508072012 54 337 0.0 3.0 0.00 0.00 0.00 90 15.1
20260508071012 54 270 0.0 1.0 0.00 0.00 0.00 91 15.1
20260508070012 53 270 0.0 2.0 0.00 0.00 0.00 94 15.1
20260508065012 52 292 0.0 1.0 0.00 0.00 0.00 93 15.0
20260508064013 52 270 0.0 2.0 0.00 0.00 0.00 95 15.0
20260508062013 51 0 0.0 0.0 0.00 0.00 0.00 96 14.9
20260508061012 50 0 0.0 0.0 0.00 0.00 0.00 97 14.8
20260508055012 49 0 0.0 0.0 0.00 0.00 0.00 99 14.8
20260508054012 48 0 0.0 0.0 0.00 0.00 0.00 99 14.7
20260508053013 47 0 0.0 0.0 0.00 0.00 0.00 99 14.7
20260508052012 47 0 0.0 0.0 0.00 0.00 0.00 99 14.7
20260508051012 46 0 0.0 0.0 0.00 0.00 0.00 99 14.8
20260508050012 46 0 0.0 0.0 0.00 0.00 0.00 99 14.7
20260508045013 45 0 0.0 0.0 0.00 0.00 0.00 99 14.6
20260508044012 45 0 0.0 0.0 0.00 0.00 0.00 99 14.6
20260508043012 44 0 0.0 0.0 0.00 0.00 0.00 99 14.7
20260508042012 44 0 0.0 0.0 0.00 0.00 0.00 99 14.6
20260508040012 44 0 0.0 0.0 0.00 0.00 0.00 99 14.4
20260508035012 44 0 0.0 0.0 0.00 0.00 0.00 98 14.4
20260508034012 44 0 0.0 0.0 0.00 0.00 0.00 98 14.5
20260508033012 44 0 0.0 0.0 0.00 0.00 0.00 98 14.5